EW7004 Weather Reports


Display with metric or nautical units.
time (UTC)temp
F
wind
direction
speed
MPH
gust
MPH
rain 1hr
in
rain 24hr
in
rain mn
in
humidity
%
barometer
mb
20260902092403 63 128 2.0 3.0 0.00 0.00 0.00 41 1033.4
20260902090904 63 105 2.0 3.0 0.00 0.00 0.00 42 1033.5
20260902090404 64 115 2.0 3.0 0.00 0.00 0.00 42 1033.6
20260902085904 64 122 2.0 3.0 0.00 0.00 0.00 42 1033.4
20260902085403 64 116 1.0 3.0 0.00 0.00 0.00 43 1033.4
20260902084904 64 107 1.0 2.0 0.00 0.00 0.00 43 1033.5
20260902084404 64 141 0.0 1.0 0.00 0.00 0.00 45 1033.6
20260902083903 64 141 2.0 3.0 0.00 0.00 0.00 44 1033.5
20260902083403 65 109 2.0 3.0 0.00 0.00 0.00 46 1033.4
20260902082903 65 119 2.0 3.0 0.00 0.00 0.00 50 1033.4
20260902082403 66 154 0.0 2.0 0.00 0.00 0.00 60 1033.4
20260902081904 66 155 0.0 0.0 0.00 0.00 0.00 58 1033.4
20260902081404 66 85 0.0 0.0 0.00 0.00 0.00 57 1033.5
20260902080403 66 85 1.0 2.0 0.00 0.00 0.00 53 1033.4
20260902075403 66 86 0.0 2.0 0.00 0.00 0.00 53 1033.3
20260902074404 67 109 1.0 3.0 0.00 0.00 0.00 52 1033.3
20260902073904 67 111 2.0 3.0 0.00 0.00 0.00 51 1033.3
20260902073404 67 130 2.0 3.0 0.00 0.00 0.00 51 1033.2
20260902072903 67 130 1.0 3.0 0.00 0.00 0.00 50 1033.1
20260902072404 67 139 2.0 3.0 0.00 0.00 0.00 50 1033.0
20260902071904 67 128 0.0 0.0 0.00 0.00 0.00 49 1033.0
20260902071404 67 130 0.0 0.0 0.00 0.00 0.00 48 1032.9
20260902070403 68 171 0.0 0.0 0.00 0.00 0.00 47 1032.9
20260902065903 68 171 1.0 2.0 0.00 0.00 0.00 47 1032.8
20260902065404 68 147 0.0 2.0 0.00 0.00 0.00 45 1032.7
20260902064904 69 147 0.0 2.0 0.00 0.00 0.00 45 1032.7
20260902064403 69 147 1.0 3.0 0.00 0.00 0.00 44 1032.7
20260902063903 69 153 0.0 5.0 0.00 0.00 0.00 44 1032.6
20260902062903 69 195 2.0 6.0 0.00 0.00 0.00 43 1032.6
20260902062404 69 221 2.0 3.0 0.00 0.00 0.00 44 1032.6
20260902061903 69 197 2.0 3.0 0.00 0.00 0.00 43 1032.6
20260902061403 69 164 0.0 2.0 0.00 0.00 0.00 44 1032.6
20260902060904 70 164 1.0 3.0 0.00 0.00 0.00 44 1032.5
20260902060404 70 161 0.0 0.0 0.00 0.00 0.00 44 1032.5
20260902055903 70 161 0.0 0.0 0.00 0.00 0.00 45 1032.5
20260902055404 70 161 0.0 0.0 0.00 0.00 0.00 45 1032.5
20260902054903 70 161 0.0 0.0 0.00 0.00 0.00 45 1032.5
20260902054403 70 161 0.0 0.0 0.00 0.00 0.00 46 1032.4
20260902053903 70 161 0.0 0.0 0.00 0.00 0.00 46 1032.3
20260902053404 71 161 0.0 0.0 0.00 0.00 0.00 46 1032.4
20260902052903 71 161 0.0 0.0 0.00 0.00 0.00 45 1032.4
20260902052404 71 161 0.0 0.0 0.00 0.00 0.00 46 1032.3
20260902051403 71 200 1.0 2.0 0.00 0.00 0.00 45 1032.3
20260902050903 72 200 0.0 2.0 0.00 0.00 0.00 45 1032.3
20260902050403 72 198 0.0 2.0 0.00 0.00 0.00 45 1032.3
20260902045904 72 196 2.0 5.0 0.00 0.00 0.00 45 1032.3
20260902045403 72 226 3.0 6.0 0.00 0.00 0.00 44 1032.2
20260902044404 73 212 2.0 6.0 0.00 0.00 0.00 43 1032.2
20260902043904 73 215 3.0 6.0 0.00 0.00 0.00 42 1032.1
20260902043403 73 203 3.0 5.0 0.00 0.00 0.00 42 1032.1
20260902041903 74 209 3.0 7.0 0.00 0.00 0.00 40 1031.9
20260902041403 74 228 5.0 7.0 0.00 0.00 0.00 39 1031.7
20260902040904 75 227 3.0 5.0 0.00 0.00 0.00 38 1031.7
20260902040403 75 223 2.0 5.0 0.00 0.00 0.00 37 1031.7
20260902035903 75 228 2.0 3.0 0.00 0.00 0.00 36 1031.6
20260902035403 76 225 1.0 3.0 0.00 0.00 0.00 36 1031.5
20260902034403 76 206 1.0 2.0 0.00 0.00 0.00 34 1031.3
20260902033903 76 173 1.0 5.0 0.00 0.00 0.00 33 1031.3
20260902033403 77 180 1.0 5.0 0.00 0.00 0.00 33 1031.1
20260902032903 77 210 2.0 7.0 0.00 0.00 0.00 33 1031.1
20260902032403 77 218 3.0 6.0 0.00 0.00 0.00 32 1031.0
20260902031903 77 224 3.0 6.0 0.00 0.00 0.00 32 1030.9
20260902031404 78 223 5.0 9.0 0.00 0.00 0.00 31 1030.8
20260902030903 78 223 4.0 7.0 0.00 0.00 0.00 31 1030.8
20260902030403 78 233 5.0 9.0 0.00 0.00 0.00 31 1030.7
20260902025403 79 218 6.0 12.0 0.00 0.00 0.00 30 1030.7
20260902024904 79 215 7.0 12.0 0.00 0.00 0.00 30 1030.7
20260902024403 80 216 5.0 8.0 0.00 0.00 0.00 29 1030.7
20260902023903 80 227 3.0 6.0 0.00 0.00 0.00 29 1030.7
20260902023405 80 208 5.0 8.0 0.00 0.00 0.00 28 1030.6
20260902022903 80 226 5.0 7.0 0.00 0.00 0.00 28 1030.4
20260902022404 81 226 6.0 10.0 0.00 0.00 0.00 28 1030.3
20260902021903 81 226 5.0 10.0 0.00 0.00 0.00 28 1030.3
20260902020903 82 222 6.0 9.0 0.00 0.00 0.00 27 1030.2
20260902015903 83 218 9.0 13.0 0.00 0.00 0.00 26 1030.1
20260902015403 83 223 9.0 12.0 0.00 0.00 0.00 26 1030.1
20260902014903 83 218 9.0 13.0 0.00 0.00 0.00 26 1030.1
20260902013903 84 210 10.0 16.0 0.00 0.00 0.00 25 1030.0
20260902013403 84 209 9.0 15.0 0.00 0.00 0.00 25 1030.0
20260902012904 85 214 8.0 14.0 0.00 0.00 0.00 25 1030.0
20260902012403 85 210 9.0 15.0 0.00 0.00 0.00 25 1029.9
20260902011403 86 228 6.0 15.0 0.00 0.00 0.00 25 1029.9
20260902010904 86 214 12.0 16.0 0.00 0.00 0.00 24 1029.8
20260902010403 86 216 7.0 16.0 0.00 0.00 0.00 24 1029.8
20260902005904 86 228 9.0 16.0 0.00 0.00 0.00 24 1029.8
20260902005404 86 215 13.0 17.0 0.00 0.00 0.00 24 1029.7
20260902004903 87 207 11.0 17.0 0.00 0.00 0.00 24 1029.8
20260902004405 87 210 8.0 15.0 0.00 0.00 0.00 24 1029.8
20260902003904 87 232 9.0 14.0 0.00 0.00 0.00 24 1029.7
20260902003403 87 228 12.0 16.0 0.00 0.00 0.00 24 1029.8
20260902002903 87 221 8.0 16.0 0.00 0.00 0.00 24 1029.8
20260902002404 88 213 9.0 17.0 0.00 0.00 0.00 24 1029.8
20260902001903 88 206 9.0 17.0 0.00 0.00 0.00 24 1029.8
20260902001404 88 223 10.0 15.0 0.00 0.00 0.00 23 1029.8
20260902000903 88 222 11.0 20.0 0.00 0.00 0.00 23 1029.9
20260902000403 88 203 9.0 17.0 0.00 0.00 0.00 23 1029.8
20260901235903 88 209 9.0 16.0 0.00 0.00 0.00 24 1029.9
20260901234903 89 224 7.0 18.0 0.00 0.00 0.00 23 1029.9
20260901233903 89 196 10.0 17.0 0.00 0.00 0.00 22 1029.9
20260901233403 89 208 9.0 17.0 0.00 0.00 0.00 23 1030.0
20260901232403 90 198 10.0 17.0 0.00 0.00 0.00 24 1030.0
20260901230903 90 216 8.0 15.0 0.00 0.00 0.00 24 1030.0
20260901230403 90 229 9.0 13.0 0.00 0.00 0.00 24 1030.0
20260901225904 90 224 7.0 14.0 0.00 0.00 0.00 24 1029.9
20260901225403 90 220 8.0 14.0 0.00 0.00 0.00 24 1030.0
20260901224903 90 219 9.0 15.0 0.00 0.00 0.00 23 1030.1
20260901224403 91 229 10.0 15.0 0.00 0.00 0.00 24 1030.1
20260901223904 91 223 6.0 18.0 0.00 0.00 0.00 24 1030.2
20260901223403 91 214 8.0 12.0 0.00 0.00 0.00 23 1030.2
20260901222903 91 193 5.0 12.0 0.00 0.00 0.00 24 1030.3
20260901222404 91 233 13.0 18.0 0.00 0.00 0.00 22 1030.3
20260901220904 91 214 7.0 12.0 0.00 0.00 0.00 21 1030.4
20260901220403 91 166 4.0 15.0 0.00 0.00 0.00 21 1030.4
20260901215903 91 246 7.0 18.0 0.00 0.00 0.00 20 1030.4
20260901214903 91 207 6.0 12.0 0.00 0.00 0.00 20 1030.6
20260901214403 91 138 2.0 10.0 0.00 0.00 0.00 19 1030.6
20260901213903 91 154 5.0 12.0 0.00 0.00 0.00 21 1030.7
20260901213403 91 233 2.0 8.0 0.00 0.00 0.00 18 1030.7
20260901212403 91 224 3.0 9.0 0.00 0.00 0.00 19 1030.8
20260901211903 90 126 4.0 9.0 0.00 0.00 0.00 19 1030.8
20260901210903 89 303 2.0 7.0 0.00 0.00 0.00 18 1030.9
20260901205903 90 284 8.0 14.0 0.00 0.00 0.00 18 1031.0
20260901205404 90 226 3.0 9.0 0.00 0.00 0.00 18 1031.0
20260901204903 89 234 3.0 12.0 0.00 0.00 0.00 17 1031.2
20260901203403 89 275 7.0 12.0 0.00 0.00 0.00 16 1031.4
20260901202404 89 267 5.0 12.0 0.00 0.00 0.00 17 1031.3
20260901201904 89 135 6.0 9.0 0.00 0.00 0.00 17 1031.5
20260901201403 89 145 3.0 9.0 0.00 0.00 0.00 17 1031.5
20260901200903 89 218 10.0 15.0 0.00 0.00 0.00 15 1031.6
20260901200404 89 227 9.0 15.0 0.00 0.00 0.00 15 1031.6
20260901195903 89 127 3.0 9.0 0.00 0.00 0.00 16 1031.7
20260901195403 89 121 2.0 6.0 0.00 0.00 0.00 16 1031.8
20260901194904 89 180 4.0 8.0 0.00 0.00 0.00 16 1031.9
20260901193903 88 156 3.0 7.0 0.00 0.00 0.00 17 1032.0
20260901192903 88 187 4.0 9.0 0.00 0.00 0.00 17 1032.1
20260901192403 87 188 2.0 6.0 0.00 0.00 0.00 18 1032.2
20260901191904 87 30 2.0 6.0 0.00 0.00 0.00 17 1032.3
20260901191403 87 243 2.0 3.0 0.00 0.00 0.00 17 1032.3
20260901190903 87 233 5.0 8.0 0.00 0.00 0.00 17 1032.4
20260901185904 86 168 3.0 8.0 0.00 0.00 0.00 19 1032.6
20260901184904 86 219 5.0 7.0 0.00 0.00 0.00 18 1032.6
20260901184403 86 214 2.0 6.0 0.00 0.00 0.00 18 1032.6
20260901183904 86 192 1.0 5.0 0.00 0.00 0.00 18 1032.6
20260901183404 85 188 2.0 6.0 0.00 0.00 0.00 19 1032.6
20260901182903 84 237 3.0 7.0 0.00 0.00 0.00 19 1032.7
20260901182404 83 234 3.0 7.0 0.00 0.00 0.00 21 1032.7
20260901181903 83 249 2.0 5.0 0.00 0.00 0.00 22 1032.7
20260901181404 82 291 2.0 7.0 0.00 0.00 0.00 23 1032.8
20260901180903 82 207 2.0 8.0 0.00 0.00 0.00 26 1032.8
20260901180404 83 209 2.0 5.0 0.00 0.00 0.00 26 1032.8
20260901174903 81 311 2.0 8.0 0.00 0.00 0.00 26 1032.9
20260901174403 81 224 3.0 5.0 0.00 0.00 0.00 26 1032.9
20260901173904 81 271 3.0 7.0 0.00 0.00 0.00 27 1032.9
20260901173403 81 254 3.0 5.0 0.00 0.00 0.00 28 1032.9
20260901172903 80 326 1.0 3.0 0.00 0.00 0.00 29 1032.9
20260901171904 80 255 2.0 3.0 0.00 0.00 0.00 28 1032.9
20260901171404 80 132 1.0 3.0 0.00 0.00 0.00 30 1032.8
20260901170903 79 205 1.0 3.0 0.00 0.00 0.00 31 1032.9
20260901170404 79 245 0.0 3.0 0.00 0.00 0.00 29 1032.8
20260901165403 78 163 0.0 0.0 0.00 0.00 0.00 30 1032.9
20260901164904 77 171 1.0 3.0 0.00 0.00 0.00 31 1032.9
20260901163903 76 203 1.0 3.0 0.00 0.00 0.00 31 1033.0
20260901163403 75 153 1.0 2.0 0.00 0.00 0.00 32 1033.0
20260901162904 74 330 0.0 2.0 0.00 0.00 0.00 31 1033.0
20260901162404 73 330 0.0 1.0 0.00 0.00 0.00 32 1032.9
20260901161903 72 284 0.0 3.0 0.00 0.00 0.00 33 1032.9
20260901161403 72 281 2.0 3.0 0.00 0.00 0.00 33 1032.9
20260901160403 71 289 0.0 2.0 0.00 0.00 0.00 36 1032.8
20260901155903 71 277 2.0 3.0 0.00 0.00 0.00 36 1032.8
20260901155403 71 338 0.0 0.0 0.00 0.00 0.00 40 1032.8
20260901154904 70 338 0.0 0.0 0.00 0.00 0.00 40 1032.8
20260901154403 70 338 0.0 2.0 0.00 0.00 0.00 41 1032.8
20260901153404 69 299 0.0 1.0 0.00 0.00 0.00 41 1032.8
20260901152903 69 297 1.0 3.0 0.00 0.00 0.00 40 1032.7
20260901152403 69 280 1.0 3.0 0.00 0.00 0.00 38 1032.8
20260901151903 69 298 1.0 3.0 0.00 0.00 0.00 37 1032.7
20260901151403 69 112 0.0 1.0 0.00 0.00 0.00 36 1032.7
20260901150903 69 112 0.0 0.0 0.00 0.00 0.00 36 1032.6
20260901150403 68 112 0.0 0.0 0.00 0.00 0.00 36 1032.6
20260901145904 68 112 0.0 0.0 0.00 0.00 0.00 37 1032.7
20260901145403 67 112 0.0 0.0 0.00 0.00 0.00 37 1032.6
20260901144903 67 112 0.0 0.0 0.00 0.00 0.00 38 1032.7
20260901144403 66 112 0.0 0.0 0.00 0.00 0.00 39 1032.6
20260901143903 65 112 0.0 0.0 0.00 0.00 0.00 41 1032.6
20260901143403 65 112 0.0 0.0 0.00 0.00 0.00 42 1032.6
20260901142903 64 112 0.0 0.0 0.00 0.00 0.00 42 1032.6
20260901142403 64 112 0.0 0.0 0.00 0.00 0.00 44 1032.5
20260901141903 63 112 0.0 0.0 0.00 0.00 0.00 44 1032.5
20260901141403 62 112 1.0 2.0 0.00 0.00 0.00 45 1032.5
20260901140903 62 112 0.0 0.0 0.00 0.00 0.00 46 1032.4
20260901140403 61 113 0.0 0.0 0.00 0.00 0.00 47 1032.5
20260901135903 61 113 0.0 0.0 0.00 0.00 0.00 47 1032.4
20260901134903 61 113 0.0 3.0 0.00 0.00 0.00 47 1032.2
20260901134403 61 163 0.0 0.0 0.00 0.00 0.00 47 1032.0
20260901133903 61 163 0.0 0.0 0.00 0.00 0.00 47 1032.0
20260901133404 61 163 0.0 0.0 0.00 0.00 0.00 47 1031.9
20260901132903 61 163 0.0 0.0 0.00 0.00 0.00 47 1031.7
20260901132405 61 163 0.0 0.0 0.00 0.00 0.00 47 1031.8
20260901131903 61 163 0.0 0.0 0.00 0.00 0.00 47 1031.7
20260901131404 61 163 0.0 1.0 0.00 0.00 0.00 47 1031.7
20260901130904 61 163 0.0 2.0 0.00 0.00 0.00 47 1031.5
20260901125903 60 163 0.0 2.0 0.00 0.00 0.00 47 1031.6
20260901125403 60 163 0.0 0.0 0.00 0.00 0.00 48 1031.6
20260901124903 61 163 0.0 0.0 0.00 0.00 0.00 48 1031.6
20260901124403 61 163 0.0 0.0 0.00 0.00 0.00 48 1031.5
20260901123904 61 163 0.0 0.0 0.00 0.00 0.00 48 1031.5
20260901123403 61 163 0.0 0.0 0.00 0.00 0.00 49 1031.6
20260901122903 61 163 0.0 0.0 0.00 0.00 0.00 47 1031.6
20260901122403 61 163 0.0 0.0 0.00 0.00 0.00 47 1031.5
20260901121903 61 163 0.0 0.0 0.00 0.00 0.00 48 1031.6
20260901120903 62 163 0.0 0.0 0.00 0.00 0.00 47 1031.3
20260901115904 62 163 0.0 0.0 0.00 0.00 0.00 46 1031.4
20260901115403 62 163 0.0 0.0 0.00 0.00 0.00 47 1031.4
20260901114904 62 163 0.0 0.0 0.00 0.00 0.00 46 1031.4
20260901114403 62 163 0.0 0.0 0.00 0.00 0.00 47 1031.3
20260901113403 62 163 0.0 0.0 0.00 0.00 0.00 47 1031.4
20260901112903 62 163 0.0 0.0 0.00 0.00 0.00 47 1031.4
20260901112403 62 163 0.0 0.0 0.00 0.00 0.00 47 1031.4
20260901111903 62 163 0.0 0.0 0.00 0.00 0.00 48 1031.4
20260901111404 62 163 0.0 0.0 0.00 0.00 0.00 48 1031.5
20260901110904 62 163 0.0 0.0 0.00 0.00 0.00 48 1031.5
20260901110404 62 248 0.0 0.0 0.00 0.00 0.00 47 1031.5
20260901105904 62 248 0.0 0.0 0.00 0.00 0.00 47 1031.4
20260901105403 62 248 0.0 0.0 0.00 0.00 0.00 47 1031.4
20260901104903 63 248 0.0 0.0 0.00 0.00 0.00 47 1031.5
20260901104403 63 248 0.0 0.0 0.00 0.00 0.00 50 1031.4
20260901103904 63 248 0.0 0.0 0.00 0.00 0.00 50 1031.5
20260901103403 63 248 0.0 0.0 0.00 0.00 0.00 50 1031.5
20260901101904 64 248 0.0 0.0 0.00 0.00 0.00 49 1031.4
20260901101403 64 248 0.0 0.0 0.00 0.00 0.00 48 1031.5
20260901100904 64 248 0.0 0.0 0.00 0.00 0.00 46 1031.3
20260901100404 65 122 0.0 0.0 0.00 0.00 0.00 44 1031.4
20260901095904 65 122 0.0 0.0 0.00 0.00 0.00 43 1031.4
20260901095403 65 122 0.0 0.0 0.00 0.00 0.00 43 1031.4
20260901094903 65 122 0.0 0.0 0.00 0.00 0.00 43 1031.5
20260901094403 65 122 0.0 0.0 0.00 0.00 0.00 43 1031.4
20260901093904 65 122 0.0 0.0 0.00 0.00 0.00 43 1031.3
20260901093404 65 122 0.0 0.0 0.00 0.00 0.00 43 1031.3
20260901092903 65 122 0.0 0.0 0.00 0.00 0.00 43 1031.3